Track EUTE KA SAT 9A (KA SAT) now! EUTE KA SAT 9A (KA SAT) is classified as:
1 37258U 10069A 25186.56654185 .00000077 00000-0 00000-0 0 9997 2 37258 0.0596 306.1624 0003948 185.6461 4.9416 1.00269165 40530